Weather History for Ft Lauderdale, FL

Change the Weather History Date:

Friday, March 29, 2013

  Actual Average Record
Temperature  
Mean Temperature 67 °F 74 °F  
Max Temperature 75 °F 81 °F 90 °F (1935)
Min Temperature 58 °F 67 °F 50 °F (1925)
Degree Days  
Heating Degree Days 0 0  
Month to date heating degree days 42 7  
Since 1 July heating degree days 85 109  
Cooling Degree Days 2 9  
Month to date cooling degree days 117 236  
Year to date cooling degree days 574 592  
Growing Degree Days 16 (Base 50)    
Moisture  
Dew Point 48 °F    
Average Humidity 50    
Maximum Humidity 58    
Minimum Humidity 41    
Precipitation  
Precipitation 0.00 in 0.13 in 1.45 in (1930)
Month to date precipitation 0.09 3.09  
Year to date precipitation 3.21 9.68  
Snow  
Snow 0.00 in - - ()
Month to date snowfall 0.0  
Since 1 July snowfall 0.0  
Snow Depth 0.00 in    
Sea Level Pressure  
Sea Level Pressure 30.24 in    
Wind  
Wind Speed 10 mph (NE)    
Max Wind Speed 18 mph    
Max Gust Speed 25 mph    
Visibility 10 miles    
Events      
T = Trace of Precipitation, MM = Missing Value Source: NWS Daily Summary

Daily Weather History Graph

Daily Weather History Graph

Search for Another Location

Airport:

Trip Planner

Search our weather history database for the weather conditions in past years. The results will help you decide how hot, cold, wet, or windy it might be!

Date:

Astronomy

Mar. 29, 2013 Rise Set
Actual Time 7:14 AM EDT 7:36 PM EDT
Civil Twilight 6:51 AM EDT 7:59 PM EDT
Nautical Twilight 6:24 AM EDT 8:26 PM EDT
Astronomical Twilight 5:57 AM EDT 8:53 PM EDT
Moon 10:14 PM EDT (3/29) 8:39 AM EDT (3/29)
Length of Visible Light 13h 07m
Length of Day
12h 21m
Waning Gibbous, 93% of the Moon is Illuminated
Mar 29
Waning Gibbous
Apr 3
Last Quarter
Apr 10
New
Apr 18
First Quarter
Apr 25
Full

Hourly Weather History & Observations

Time (EDT) Temp. Dew Point Humidity Pressure Visibility Wind Dir Wind Speed Gust Speed Precip Events Conditions
12:53 AM 60.1 °F 39.0 °F 46% 30.25 in 10.0 mi North 5.8 mph - N/A   Clear
1:53 AM 60.1 °F 43.0 °F 53% 30.24 in 10.0 mi NNW 5.8 mph - N/A   Partly Cloudy
2:53 AM 60.1 °F 44.1 °F 55% 30.23 in 10.0 mi NNW 5.8 mph - N/A   Partly Cloudy
3:53 AM 59.0 °F 45.0 °F 60% 30.22 in 10.0 mi NNW 5.8 mph - N/A   Partly Cloudy
4:53 AM 59.0 °F 44.1 °F 58% 30.21 in 10.0 mi NNW 6.9 mph - N/A   Partly Cloudy
5:53 AM 57.9 °F 43.0 °F 58% 30.22 in 10.0 mi North 6.9 mph - N/A   Partly Cloudy
6:53 AM 59.0 °F 44.1 °F 58% 30.24 in 10.0 mi North 6.9 mph - N/A   Partly Cloudy
7:53 AM 60.1 °F 44.1 °F 55% 30.25 in 10.0 mi North 8.1 mph - N/A   Partly Cloudy
8:53 AM 66.0 °F 46.0 °F 48% 30.26 in 10.0 mi North 10.4 mph - N/A   Partly Cloudy
9:53 AM 71.1 °F 46.9 °F 42% 30.28 in 10.0 mi North 12.7 mph - N/A   Partly Cloudy
10:53 AM 73.0 °F 48.0 °F 41% 30.29 in 10.0 mi NNE 11.5 mph 21.9 mph N/A   Partly Cloudy
11:53 AM 73.9 °F 50.0 °F 43% 30.28 in 10.0 mi NE 15.0 mph 21.9 mph N/A   Partly Cloudy
12:53 PM 75.0 °F 50.0 °F 41% 30.27 in 10.0 mi ENE 15.0 mph 21.9 mph N/A   Partly Cloudy
1:53 PM 73.9 °F 48.9 °F 41% 30.25 in 10.0 mi ENE 13.8 mph - N/A   Partly Cloudy
2:53 PM 73.0 °F 51.1 °F 46% 30.23 in 10.0 mi East 13.8 mph 23.0 mph N/A   Scattered Clouds
3:53 PM 72.0 °F 52.0 °F 49% 30.22 in 10.0 mi East 13.8 mph 20.7 mph N/A   Mostly Cloudy
4:53 PM 71.1 °F 51.1 °F 49% 30.22 in 10.0 mi East 10.4 mph - N/A   Mostly Cloudy
5:53 PM 71.1 °F 51.1 °F 49% 30.22 in 10.0 mi East 15.0 mph 20.7 mph N/A   Scattered Clouds
6:53 PM 70.0 °F 51.1 °F 51% 30.22 in 10.0 mi East 13.8 mph 19.6 mph N/A   Partly Cloudy
7:53 PM 68.0 °F 50.0 °F 52% 30.22 in 10.0 mi East 8.1 mph - N/A   Partly Cloudy
8:53 PM 68.0 °F 51.1 °F 55% 30.23 in 10.0 mi East 9.2 mph - N/A   Partly Cloudy
9:53 PM 68.0 °F 51.1 °F 55% 30.24 in 10.0 mi East 8.1 mph - N/A   Partly Cloudy
10:53 PM 66.9 °F 51.1 °F 57% 30.25 in 10.0 mi East 8.1 mph - N/A   Partly Cloudy
11:53 PM 66.9 °F 50.0 °F 54% 30.25 in 10.0 mi East 8.1 mph - N/A   Partly Cloudy